Time,TemperatureF,DewpointF,PressureIn,WindDirection,WindDirectionDegrees,WindSpeedMPH,WindSpeedGustMPH,Humidity,HourlyPrecipIn,Conditions,Clouds,dailyrainin,SoftwareType,DateUTC
2013-01-02 00:03:00,63.0,58.0,-100.00,SSW,205,2.0,17.0,85,-99.99,,,-99.99,,2013-01-02 05:03:00,
2013-01-02 00:12:00,63.0,58.0,-100.00,SSW,205,3.0,14.0,84,-99.99,,,-99.99,,2013-01-02 05:12:00,
2013-01-02 00:22:00,63.0,58.0,-100.00,SSW,210,11.0,20.0,83,-99.99,,,-99.99,,2013-01-02 05:22:00,
2013-01-02 00:33:00,62.0,57.0,-100.00,SW,225,14.0,24.0,83,-99.99,,,-99.99,,2013-01-02 05:33:00,
2013-01-02 00:42:00,62.0,57.0,-100.00,SW,215,11.0,27.0,83,-99.99,,,-99.99,,2013-01-02 05:42:00,
2013-01-02 00:52:00,62.0,57.0,-100.00,SW,220,13.0,24.0,82,-99.99,,,-99.99,,2013-01-02 05:52:00,
2013-01-02 01:02:00,62.0,56.0,-100.00,SW,235,16.0,27.0,80,-99.99,,,-99.99,,2013-01-02 06:02:00,
2013-01-02 01:12:00,62.0,55.0,-100.00,SW,235,16.0,24.0,78,-99.99,,,-99.99,,2013-01-02 06:12:00,
2013-01-02 01:22:00,63.0,55.0,-100.00,SW,230,15.0,24.0,77,-99.99,,,-99.99,,2013-01-02 06:22:00,
2013-01-02 01:32:00,62.0,55.0,-100.00,SW,225,13.0,23.0,76,-99.99,,,-99.99,,2013-01-02 06:32:00,
2013-01-02 01:42:00,63.0,55.0,-100.00,SW,220,16.0,26.0,75,-99.99,,,-99.99,,2013-01-02 06:42:00,
2013-01-02 01:52:00,63.0,54.0,-100.00,WSW,240,16.0,24.0,74,-99.99,,,-99.99,,2013-01-02 06:52:00,
2013-01-02 02:02:00,63.0,54.0,-100.00,WSW,240,19.0,29.0,73,-99.99,,,-99.99,,2013-01-02 07:02:00,
2013-01-02 02:12:00,63.0,54.0,-100.00,SW,235,16.0,29.0,71,-99.99,,,-99.99,,2013-01-02 07:12:00,
2013-01-02 02:22:00,63.0,53.0,-100.00,SW,235,15.0,25.0,71,-99.99,,,-99.99,,2013-01-02 07:22:00,
2013-01-02 02:32:00,63.0,54.0,-100.00,SW,225,20.0,26.0,71,-99.99,,,-99.99,,2013-01-02 07:32:00,
2013-01-02 02:42:00,63.0,54.0,-100.00,SW,230,16.0,27.0,71,-99.99,,,-99.99,,2013-01-02 07:42:00,
2013-01-02 02:52:00,64.0,54.0,-100.00,SW,230,17.0,27.0,70,-99.99,,,-99.99,,2013-01-02 07:52:00,
2013-01-02 03:02:00,64.0,53.0,-100.00,SW,230,16.0,27.0,69,-99.99,,,-99.99,,2013-01-02 08:02:00,
2013-01-02 03:12:00,64.0,53.0,-100.00,WSW,245,12.0,27.0,69,-99.99,,,-99.99,,2013-01-02 08:12:00,
2013-01-02 03:22:00,64.0,53.0,-100.00,SW,225,13.0,26.0,69,-99.99,,,-99.99,,2013-01-02 08:22:00,
2013-01-02 03:32:00,64.0,54.0,-100.00,SW,230,13.0,25.0,70,-99.99,,,-99.99,,2013-01-02 08:32:00,
2013-01-02 03:42:00,64.0,54.0,-100.00,SW,215,9.0,23.0,70,-99.99,,,-99.99,,2013-01-02 08:42:00,
2013-01-02 03:52:00,63.0,54.0,-100.00,SW,220,6.0,21.0,71,-99.99,,,-99.99,,2013-01-02 08:52:00,
2013-01-02 04:02:00,63.0,54.0,-100.00,SW,235,9.0,24.0,72,-99.99,,,-99.99,,2013-01-02 09:02:00,
2013-01-02 04:12:00,63.0,54.0,-100.00,SW,235,7.0,20.0,73,-99.99,,,-99.99,,2013-01-02 09:12:00,
2013-01-02 04:22:00,62.0,54.0,-100.00,SW,230,9.0,22.0,74,-99.99,,,-99.99,,2013-01-02 09:22:00,
2013-01-02 04:32:00,62.0,54.0,-100.00,SW,230,8.0,20.0,75,-99.99,,,-99.99,,2013-01-02 09:32:00,
2013-01-02 04:43:00,62.0,54.0,-100.00,SW,230,6.0,20.0,76,-99.99,,,-99.99,,2013-01-02 09:43:00,
2013-01-02 04:52:00,62.0,54.0,-100.00,SW,220,5.0,16.0,76,-99.99,,,-99.99,,2013-01-02 09:52:00,
2013-01-02 05:02:00,61.0,54.0,-100.00,SW,225,8.0,17.0,78,-99.99,,,-99.99,,2013-01-02 10:02:00,
2013-01-02 05:12:00,61.0,54.0,-100.00,SW,230,2.0,17.0,78,-99.99,,,-99.99,,2013-01-02 10:12:00,
2013-01-02 05:22:00,61.0,54.0,-100.00,SW,225,2.0,15.0,79,-99.99,,,-99.99,,2013-01-02 10:22:00,
2013-01-02 05:32:00,61.0,55.0,-100.00,SW,230,2.0,8.0,80,-99.99,,,-99.99,,2013-01-02 10:32:00,
2013-01-02 05:42:00,61.0,55.0,-100.00,WSW,250,4.0,8.0,80,-99.99,,,-99.99,,2013-01-02 10:42:00,
2013-01-02 05:52:00,61.0,55.0,-100.00,WSW,245,3.0,13.0,80,-99.99,,,-99.99,,2013-01-02 10:52:00,
2013-01-02 06:02:00,61.0,55.0,-100.00,WSW,250,4.0,8.0,81,-99.99,,,-99.99,,2013-01-02 11:02:00,
2013-01-02 06:12:00,61.0,55.0,-100.00,WSW,240,1.0,7.0,81,-99.99,,,-99.99,,2013-01-02 11:12:00,
2013-01-02 06:22:00,61.0,55.0,-100.00,SW,225,3.0,13.0,82,-99.99,,,-99.99,,2013-01-02 11:22:00,
2013-01-02 06:33:00,60.0,55.0,-100.00,SW,225,4.0,8.0,83,-99.99,,,-99.99,,2013-01-02 11:33:00,
2013-01-02 06:42:00,60.0,55.0,-100.00,SW,225,2.0,8.0,84,-99.99,,,-99.99,,2013-01-02 11:42:00,
2013-01-02 06:52:00,60.0,55.0,-100.00,SW,215,3.0,7.0,84,-99.99,,,-99.99,,2013-01-02 11:52:00,
2013-01-02 07:03:00,60.0,55.0,-100.00,SW,220,2.0,7.0,85,-99.99,,,-99.99,,2013-01-02 12:03:00,
2013-01-02 07:12:00,59.0,55.0,-100.00,SW,220,2.0,6.0,86,-99.99,,,-99.99,,2013-01-02 12:12:00,
2013-01-02 07:22:00,59.0,55.0,-100.00,SSW,210,2.0,8.0,86,-99.99,,,-99.99,,2013-01-02 12:22:00,
2013-01-02 07:33:00,59.0,55.0,-100.00,WSW,240,2.0,16.0,87,-99.99,,,-99.99,,2013-01-02 12:33:00,
2013-01-02 07:43:00,60.0,56.0,-100.00,SW,230,2.0,14.0,87,-99.99,,,-99.99,,2013-01-02 12:43:00,
2013-01-02 07:53:00,60.0,56.0,-100.00,SW,235,4.0,10.0,87,-99.99,,,-99.99,,2013-01-02 12:53:00,
2013-01-02 08:03:00,60.0,56.0,-100.00,WSW,250,2.0,11.0,87,-99.99,,,-99.99,,2013-01-02 13:03:00,
2013-01-02 08:12:00,60.0,57.0,-100.00,WSW,250,4.0,18.0,87,-99.99,,,-99.99,,2013-01-02 13:12:00,
2013-01-02 08:22:00,61.0,57.0,-100.00,WSW,245,5.0,14.0,87,-99.99,,,-99.99,,2013-01-02 13:22:00,
2013-01-02 08:33:00,61.0,56.0,-100.00,West,265,4.0,14.0,86,-99.99,,,-99.99,,2013-01-02 13:33:00,
2013-01-02 08:43:00,61.0,56.0,-100.00,SW,225,2.0,13.0,86,-99.99,,,-99.99,,2013-01-02 13:43:00,
2013-01-02 08:52:00,61.0,57.0,-100.00,West,265,2.0,12.0,86,-99.99,,,-99.99,,2013-01-02 13:52:00,
2013-01-02 09:03:00,61.0,57.0,-100.00,WSW,250,4.0,8.0,86,-99.99,,,-99.99,,2013-01-02 14:03:00,
2013-01-02 09:12:00,61.0,57.0,-100.00,WSW,240,4.0,15.0,87,-99.99,,,-99.99,,2013-01-02 14:12:00,
2013-01-02 09:23:00,62.0,57.0,-100.00,WSW,250,2.0,14.0,86,-99.99,,,-99.99,,2013-01-02 14:23:00,
2013-01-02 09:33:00,62.0,58.0,-100.00,WSW,245,3.0,7.0,86,-99.99,,,-99.99,,2013-01-02 14:33:00,
2013-01-02 09:43:00,62.0,58.0,-100.00,SW,235,3.0,8.0,86,-99.99,,,-99.99,,2013-01-02 14:43:00,
2013-01-02 09:53:00,62.0,58.0,-100.00,WSW,245,2.0,11.0,86,-99.99,,,-99.99,,2013-01-02 14:53:00,
2013-01-02 10:03:00,62.0,58.0,-100.00,WNW,300,1.0,12.0,87,-99.99,,,-99.99,,2013-01-02 15:03:00,
2013-01-02 10:12:00,62.0,58.0,-100.00,WNW,300,2.0,6.0,87,-99.99,,,-99.99,,2013-01-02 15:12:00,
2013-01-02 10:23:00,62.0,58.0,-100.00,WNW,285,4.0,7.0,89,-99.99,,,-99.99,,2013-01-02 15:23:00,
2013-01-02 10:33:00,61.0,58.0,-100.00,WNW,295,4.0,7.0,90,-99.99,,,-99.99,,2013-01-02 15:33:00,
2013-01-02 10:43:00,60.0,58.0,-100.00,NW,315,1.0,7.0,92,-99.99,,,-99.99,,2013-01-02 15:43:00,
2013-01-02 10:53:00,60.0,57.0,-100.00,NNW,345,19.0,22.0,92,-99.99,,,-99.99,,2013-01-02 15:53:00,
2013-01-02 11:03:00,59.0,57.0,-100.00,North,0,1.0,6.0,92,-99.99,,,-99.99,,2013-01-02 16:03:00,
2013-01-02 11:13:00,58.0,56.0,-100.00,North,350,20.0,24.0,93,-99.99,,,-99.99,,2013-01-02 16:13:00,
2013-01-02 11:22:00,58.0,56.0,-100.00,NNW,335,19.0,22.0,93,-99.99,,,-99.99,,2013-01-02 16:22:00,
2013-01-02 11:33:00,57.0,55.0,-100.00,NNW,335,18.0,21.0,93,-99.99,,,-99.99,,2013-01-02 16:33:00,
2013-01-02 11:43:00,58.0,56.0,-100.00,NNW,340,19.0,22.0,93,-99.99,,,-99.99,,2013-01-02 16:43:00,
2013-01-02 11:53:00,58.0,55.0,-100.00,NNW,340,18.0,21.0,92,-99.99,,,-99.99,,2013-01-02 16:53:00,
2013-01-02 12:03:00,58.0,55.0,-100.00,NNW,340,17.0,21.0,91,-99.99,,,-99.99,,2013-01-02 17:03:00,
2013-01-02 12:13:00,58.0,55.0,-100.00,NNW,335,5.0,23.0,89,-99.99,,,-99.99,,2013-01-02 17:13:00,
2013-01-02 12:23:00,58.0,54.0,-100.00,NNW,340,21.0,24.0,88,-99.99,,,-99.99,,2013-01-02 17:23:00,
2013-01-02 12:33:00,58.0,54.0,-100.00,NNW,335,21.0,23.0,87,-99.99,,,-99.99,,2013-01-02 17:33:00,
2013-01-02 12:43:00,57.0,54.0,-100.00,NNW,335,20.0,23.0,88,-99.99,,,-99.99,,2013-01-02 17:43:00,
2013-01-02 12:53:00,56.0,54.0,-100.00,NNW,335,23.0,25.0,90,-99.99,,,-99.99,,2013-01-02 17:53:00,
2013-01-02 13:03:00,56.0,54.0,-100.00,NNW,340,20.0,24.0,91,-99.99,,,-99.99,,2013-01-02 18:03:00,
2013-01-02 13:13:00,56.0,54.0,-100.00,NNW,345,15.0,21.0,91,-99.99,,,-99.99,,2013-01-02 18:13:00,
2013-01-02 13:23:00,56.0,54.0,-100.00,North,355,10.0,16.0,91,-99.99,,,-99.99,,2013-01-02 18:23:00,
2013-01-02 13:33:00,56.0,54.0,-100.00,North,0,0.0,14.0,91,-99.99,,,-99.99,,2013-01-02 18:33:00,
2013-01-02 13:43:00,57.0,54.0,-100.00,North,0,0.0,2.0,91,-99.99,,,-99.99,,2013-01-02 18:43:00,
2013-01-02 13:53:00,56.0,54.0,-100.00,North,0,0.0,2.0,91,-99.99,,,-99.99,,2013-01-02 18:53:00,
2013-01-02 14:03:00,56.0,54.0,-100.00,North,0,1.0,8.0,91,-99.99,,,-99.99,,2013-01-02 19:03:00,
2013-01-02 14:13:00,56.0,54.0,-100.00,North,10,1.0,9.0,91,-99.99,,,-99.99,,2013-01-02 19:13:00,
2013-01-02 14:23:00,57.0,54.0,-100.00,NNE,15,1.0,9.0,91,-99.99,,,-99.99,,2013-01-02 19:23:00,
2013-01-02 14:33:00,56.0,54.0,-100.00,North,10,0.0,9.0,90,-99.99,,,-99.99,,2013-01-02 19:33:00,
2013-01-02 14:43:00,57.0,54.0,-100.00,North,10,0.0,9.0,90,-99.99,,,-99.99,,2013-01-02 19:43:00,
2013-01-02 14:52:00,57.0,54.0,-100.00,NNE,20,0.0,9.0,90,-99.99,,,-99.99,,2013-01-02 19:52:00,
2013-01-02 15:03:00,57.0,54.0,-100.00,NNE,20,0.0,8.0,90,-99.99,,,-99.99,,2013-01-02 20:03:00,
2013-01-02 15:12:00,57.0,54.0,-100.00,NE,35,0.0,9.0,89,-99.99,,,-99.99,,2013-01-02 20:12:00,
2013-01-02 15:23:00,57.0,53.0,-100.00,NNE,25,1.0,9.0,89,-99.99,,,-99.99,,2013-01-02 20:23:00,
2013-01-02 15:33:00,56.0,53.0,-100.00,NNE,30,4.0,9.0,89,-99.99,,,-99.99,,2013-01-02 20:33:00,
2013-01-02 15:42:00,57.0,53.0,-100.00,NNE,15,4.0,9.0,89,-99.99,,,-99.99,,2013-01-02 20:42:00,
2013-01-02 15:53:00,56.0,53.0,-100.00,North,10,0.0,9.0,89,-99.99,,,-99.99,,2013-01-02 20:53:00,
2013-01-02 16:03:00,56.0,53.0,-100.00,NNE,15,1.0,9.0,89,-99.99,,,-99.99,,2013-01-02 21:03:00,
2013-01-02 16:13:00,56.0,53.0,-100.00,NNE,25,6.0,9.0,89,-99.99,,,-99.99,,2013-01-02 21:13:00,
2013-01-02 16:23:00,56.0,52.0,-100.00,ENE,65,1.0,10.0,89,-99.99,,,-99.99,,2013-01-02 21:23:00,
2013-01-02 16:33:00,56.0,52.0,-100.00,ENE,65,6.0,10.0,89,-99.99,,,-99.99,,2013-01-02 21:33:00,
2013-01-02 16:43:00,55.0,52.0,-100.00,ENE,70,6.0,9.0,89,-99.99,,,-99.99,,2013-01-02 21:43:00,
2013-01-02 16:52:00,55.0,52.0,-100.00,NE,50,7.0,9.0,90,-99.99,,,-99.99,,2013-01-02 21:52:00,
2013-01-02 17:03:00,55.0,52.0,-100.00,NE,55,4.0,10.0,90,-99.99,,,-99.99,,2013-01-02 22:03:00,
2013-01-02 17:13:00,55.0,52.0,-100.00,NE,55,8.0,10.0,91,-99.99,,,-99.99,,2013-01-02 22:13:00,
2013-01-02 17:22:00,55.0,52.0,-100.00,ENE,60,1.0,9.0,91,-99.99,,,-99.99,,2013-01-02 22:22:00,
2013-01-02 17:32:00,55.0,52.0,-100.00,NE,55,6.0,13.0,91,-99.99,,,-99.99,,2013-01-02 22:32:00,
2013-01-02 17:43:00,54.0,52.0,-100.00,ENE,70,0.0,10.0,91,-99.99,,,-99.99,,2013-01-02 22:43:00,
2013-01-02 17:52:00,54.0,52.0,-100.00,ENE,70,3.0,8.0,92,-99.99,,,-99.99,,2013-01-02 22:52:00,
2013-01-02 18:03:00,54.0,52.0,-100.00,NE,45,6.0,9.0,92,-99.99,,,-99.99,,2013-01-02 23:03:00,
2013-01-02 18:13:00,54.0,52.0,-100.00,NE,45,1.0,10.0,92,-99.99,,,-99.99,,2013-01-02 23:13:00,
2013-01-02 18:23:00,54.0,52.0,-100.00,ENE,70,6.0,10.0,91,-99.99,,,-99.99,,2013-01-02 23:23:00,
2013-01-02 18:33:00,54.0,52.0,-100.00,ENE,70,4.0,9.0,91,-99.99,,,-99.99,,2013-01-02 23:33:00,
2013-01-02 18:43:00,54.0,51.0,-100.00,NE,55,4.0,13.0,89,-99.99,,,-99.99,,2013-01-02 23:43:00,
2013-01-02 18:52:00,54.0,50.0,-100.00,NE,50,0.0,6.0,86,-99.99,,,-99.99,,2013-01-02 23:52:00,
2013-01-02 19:02:00,54.0,49.0,-100.00,NE,50,1.0,9.0,83,-99.99,,,-99.99,,2013-01-03 00:02:00,
2013-01-02 19:12:00,54.0,48.0,-100.00,NE,55,0.0,9.0,79,-99.99,,,-99.99,,2013-01-03 00:12:00,
2013-01-02 19:22:00,54.0,47.0,-100.00,ENE,60,2.0,14.0,76,-99.99,,,-99.99,,2013-01-03 00:22:00,
2013-01-02 19:38:00,54.0,47.0,-100.00,NE,55,0.0,18.0,77,-99.99,,,-99.99,,2013-01-03 00:38:00,
2013-01-02 19:52:00,54.0,47.0,-100.00,NE,50,0.0,14.0,77,-99.99,,,-99.99,,2013-01-03 00:52:00,
2013-01-02 20:02:00,54.0,47.0,-100.00,NE,55,0.0,1.0,77,-99.99,,,-99.99,,2013-01-03 01:02:00,
2013-01-02 20:12:00,54.0,47.0,-100.00,NE,50,0.0,1.0,77,-99.99,,,-99.99,,2013-01-03 01:12:00,
2013-01-02 20:22:00,54.0,46.0,-100.00,NE,50,1.0,19.0,74,-99.99,,,-99.99,,2013-01-03 01:22:00,
2013-01-02 20:32:00,54.0,46.0,-100.00,NE,50,1.0,17.0,74,-99.99,,,-99.99,,2013-01-03 01:32:00,
2013-01-02 20:43:00,54.0,46.0,-100.00,ENE,60,1.0,18.0,75,-99.99,,,-99.99,,2013-01-03 01:43:00,
2013-01-02 20:52:00,54.0,46.0,-100.00,NE,50,0.0,9.0,75,-99.99,,,-99.99,,2013-01-03 01:52:00,
2013-01-02 21:02:00,53.0,46.0,-100.00,NE,45,0.0,14.0,76,-99.99,,,-99.99,,2013-01-03 02:02:00,
2013-01-02 21:12:00,53.0,46.0,-100.00,NE,55,1.0,16.0,77,-99.99,,,-99.99,,2013-01-03 02:12:00,
2013-01-02 21:23:00,53.0,47.0,-100.00,NE,55,1.0,6.0,78,-99.99,,,-99.99,,2013-01-03 02:23:00,
2013-01-02 21:33:00,53.0,47.0,-100.00,NE,55,4.0,20.0,78,-99.99,,,-99.99,,2013-01-03 02:33:00,
2013-01-02 21:43:00,53.0,47.0,-100.00,NE,55,4.0,20.0,78,-99.99,,,-99.99,,2013-01-03 02:43:00,
2013-01-02 21:52:00,53.0,47.0,-100.00,NE,55,4.0,20.0,78,-99.99,,,-99.99,,2013-01-03 02:52:00,
2013-01-02 22:02:00,53.0,47.0,-100.00,NNE,30,0.0,14.0,79,-99.99,,,-99.99,,2013-01-03 03:02:00,
2013-01-02 22:12:00,53.0,47.0,-100.00,NE,45,0.0,17.0,79,-99.99,,,-99.99,,2013-01-03 03:12:00,
2013-01-02 22:22:00,53.0,47.0,-100.00,NE,40,0.0,9.0,80,-99.99,,,-99.99,,2013-01-03 03:22:00,
2013-01-02 22:47:00,53.0,47.0,-100.00,NNE,30,4.0,9.0,81,-99.99,,,-99.99,,2013-01-03 03:47:00,
2013-01-02 22:52:00,53.0,47.0,-100.00,NE,40,4.0,9.0,81,-99.99,,,-99.99,,2013-01-03 03:52:00,
2013-01-02 23:03:00,53.0,48.0,-100.00,NE,40,4.0,9.0,82,-99.99,,,-99.99,,2013-01-03 04:03:00,
2013-01-02 23:12:00,53.0,47.0,-100.00,NE,40,5.0,10.0,82,-99.99,,,-99.99,,2013-01-03 04:12:00,
2013-01-02 23:22:00,53.0,48.0,-100.00,NE,35,0.0,9.0,83,-99.99,,,-99.99,,2013-01-03 04:22:00,
2013-01-02 23:32:00,53.0,48.0,-100.00,NE,40,0.0,9.0,83,-99.99,,,-99.99,,2013-01-03 04:32:00,
2013-01-02 23:42:00,53.0,48.0,-100.00,NE,40,1.0,8.0,84,-99.99,,,-99.99,,2013-01-03 04:42:00,
2013-01-02 23:52:00,53.0,48.0,-100.00,NNE,30,2.0,8.0,84,-99.99,,,-99.99,,2013-01-03 04:52:00,